FW7738 Weather Reports


time (UTC)temp
C
wind
direction
speed
KPH
gust
KPH
rain 1hr
cm
rain 24hr
cm
rain mn
cm
humidity
%
barometer
mb
20260902163026 27 91 6.4 16.1 0.00 0.00 0.00 76 1017.8
20260902162021 28 92 9.7 16.1 0.00 0.00 0.00 74 1017.8
20260902161018 27 109 9.7 16.1 0.00 0.00 0.00 76 1017.8
20260902160032 27 99 9.7 14.5 0.00 0.00 0.00 76 1017.8
20260902155027 27 100 8.0 17.7 0.00 0.00 0.00 76 1017.8
20260902154022 27 127 12.9 22.5 0.00 0.00 0.00 76 1017.9
20260902153018 27 118 9.7 20.9 0.00 0.00 0.00 76 1017.9
20260902152033 27 111 9.7 17.7 0.00 0.00 0.00 76 1018.0
20260902151028 27 99 11.3 20.9 0.00 0.00 0.00 76 1018.0
20260902150024 27 95 9.7 24.1 0.00 0.00 0.00 76 1018.0
20260902145019 27 108 11.3 25.7 0.00 0.00 0.00 75 1018.1
20260902144034 28 103 12.9 24.1 0.00 0.00 0.00 75 1018.3
20260902143030 28 123 11.3 24.1 0.00 0.00 0.00 74 1018.4
20260902142025 28 118 11.3 24.1 0.00 0.00 0.00 73 1018.3
20260902141020 27 118 12.9 25.7 0.00 0.00 0.00 74 1018.4
20260902140016 28 105 11.3 20.9 0.00 0.00 0.00 73 1018.6
20260902135032 27 122 12.9 22.5 0.00 0.00 0.00 75 1018.5
20260902134027 27 126 14.5 24.1 0.00 0.00 0.00 75 1018.5
20260902133023 28 96 11.3 22.5 0.00 0.00 0.00 75 1018.5
20260902132018 28 114 11.3 27.4 0.00 0.00 0.00 75 1018.5
20260902131033 27 118 12.9 24.1 0.00 0.00 0.00 75 1018.6
20260902130028 28 111 8.0 16.1 0.00 0.00 0.00 73 1018.8
20260902125044 28 119 11.3 22.5 0.00 0.00 0.00 73 1018.8
20260902124018 28 126 11.3 22.5 0.00 0.00 0.00 73 1018.7
20260902123033 28 120 12.9 20.9 0.00 0.00 0.00 72 1018.8
20260902122028 28 105 9.7 20.9 0.00 0.00 0.00 72 1019.0
20260902121044 28 110 9.7 16.1 0.00 0.00 0.00 69 1018.9
20260902120019 28 110 6.4 17.7 0.00 0.00 0.00 70 1018.9
20260902115034 28 113 3.2 12.9 0.00 0.00 0.00 70 1019.0
20260902114050 28 127 8.0 20.9 0.00 0.00 0.00 71 1019.2
20260902113025 28 156 8.0 16.1 0.00 0.00 0.00 72 1019.2
20260902112020 28 112 4.8 17.7 0.00 0.00 0.00 71 1019.3
20260902111016 28 137 9.7 17.7 0.00 0.00 0.00 72 1019.2
20260902110031 27 95 6.4 12.9 0.00 0.00 0.00 73 1019.4
20260902105027 27 98 8.0 14.5 0.00 0.00 0.00 73 1019.3
20260902104022 27 109 8.0 14.5 0.00 0.00 0.00 75 1019.3
20260902103037 27 101 4.8 16.1 0.00 0.00 0.00 75 1019.5
20260902102032 27 114 4.8 12.9 0.00 0.00 0.00 75 1019.5
20260902101027 27 114 8.0 17.7 0.00 0.00 0.00 74 1019.5
20260902100043 27 105 11.3 20.9 0.00 0.00 0.00 75 1019.5
20260902095018 27 113 9.7 16.1 0.00 0.00 0.00 74 1019.4
20260902094033 27 121 8.0 16.1 0.00 0.00 0.00 73 1019.4
20260902093028 27 113 8.0 20.9 0.00 0.00 0.00 72 1019.3
20260902092024 26 119 11.3 17.7 0.00 0.00 0.00 73 1019.4
20260902091019 27 128 6.4 14.5 0.00 0.00 0.00 71 1019.2
20260902090035 26 89 4.8 11.3 0.00 0.00 0.00 73 1019.1
20260902085030 27 96 3.2 9.7 0.00 0.00 0.00 69 1019.0
20260902084025 26 95 1.6 6.4 0.00 0.00 0.00 71 1018.7
20260902083021 26 98 3.2 6.4 0.00 0.00 0.00 71 1018.6
20260902082036 27 119 3.2 4.8 0.00 0.00 0.00 68 1018.6
20260902081031 26 111 1.6 4.8 0.00 0.00 0.00 70 1018.5
20260902080047 26 111 1.6 3.2 0.00 0.00 0.00 71 1018.4
20260902075041 26 97 3.2 4.8 0.00 0.00 0.00 71 1018.4
20260902074017 26 92 0.0 3.2 0.00 0.00 0.00 70 1018.3
20260902073032 26 100 1.6 3.2 0.00 0.00 0.00 68 1018.4
20260902072028 26 0.0 0.0 0.00 0.00 0.00 71 1018.1
20260902071024 25 0.0 0.0 0.00 0.00 0.00 74 1018.0
20260902070018 24 0.0 0.0 0.00 0.00 0.00 77 1018.0
20260902065033 23 86 0.0 1.6 0.00 0.00 0.00 78 1017.8
20260902064028 23 75 0.0 1.6 0.00 0.00 0.00 80 1017.8
20260902063023 23 69 0.0 1.6 0.00 0.00 0.00 80 1017.7
20260902062018 23 32 0.0 1.6 0.00 0.00 0.00 79 1017.5
20260902061115 22 351 0.0 3.2 0.00 0.00 0.00 80 1017.5
20260902060028 22 317 3.2 6.4 0.00 0.00 0.00 80 1017.4
20260902055024 22 285 1.6 4.8 0.00 0.00 0.00 81 1017.4
20260902054019 22 280 1.6 4.8 0.00 0.00 0.00 81 1017.2
20260902053035 22 293 1.6 4.8 0.00 0.00 0.00 81 1017.1
20260902052029 22 293 3.2 11.3 0.00 0.00 0.00 81 1017.0
20260902051024 22 301 1.6 4.8 0.00 0.00 0.00 81 1017.1
20260902050020 22 274 3.2 6.4 0.00 0.00 0.00 81 1017.0
20260902045055 22 303 1.6 3.2 0.00 0.00 0.00 82 1017.1
20260902044030 23 319 4.8 6.4 0.00 0.00 0.00 81 1017.0
20260902043045 23 308 3.2 6.4 0.00 0.00 0.00 81 1016.8
20260902042020 23 316 3.2 6.4 0.00 0.00 0.00 81 1016.8
20260902041015 23 325 3.2 4.8 0.00 0.00 0.00 81 1017.1
20260902040052 23 316 0.0 1.6 0.00 0.00 0.00 81 1017.1
20260902035026 23 314 0.0 1.6 0.00 0.00 0.00 81 1017.2
20260902034021 23 2 0.0 3.2 0.00 0.00 0.00 81 1017.2
20260902033017 23 321 1.6 4.8 0.00 0.00 0.00 80 1017.3
20260902032032 23 296 3.2 6.4 0.00 0.00 0.00 80 1017.2
20260902031028 23 313 3.2 4.8 0.00 0.00 0.00 80 1017.3
20260902030023 23 302 3.2 4.8 0.00 0.00 0.00 81 1017.2
20260902025018 23 323 0.0 4.8 0.00 0.00 0.00 82 1017.2
20260902024034 23 329 0.0 3.2 0.00 0.00 0.00 83 1017.3
20260902023029 23 335 0.0 3.2 0.00 0.00 0.00 84 1017.2
20260902022024 23 349 1.6 3.2 0.00 0.00 0.00 84 1017.3
20260902021019 23 0.0 0.0 0.00 0.00 0.00 85 1017.2
20260902020054 23 0.0 0.0 0.00 0.00 0.00 84 1017.3
20260902015050 23 0.0 0.0 0.00 0.00 0.00 84 1017.4
20260902014026 23 335 0.0 1.6 0.00 0.00 0.00 84 1017.4
20260902013020 23 303 1.6 3.2 0.00 0.00 0.00 84 1017.6
20260902012016 23 300 1.6 1.6 0.00 0.00 0.00 85 1017.5
20260902011051 23 301 3.2 4.8 0.00 0.00 0.00 86 1017.6
20260902010026 23 307 1.6 4.8 0.00 0.00 0.00 86 1017.6
20260902005021 23 324 0.0 1.6 0.00 0.00 0.00 87 1017.6
20260902004016 23 319 1.6 3.2 0.00 0.00 0.00 87 1017.7
20260902003031 23 318 1.6 3.2 0.00 0.00 0.00 87 1017.8
20260902002107 24 0.0 0.0 0.00 0.00 0.00 87 1017.8
20260902001022 24 334 0.0 1.6 0.00 0.00 0.00 87 1017.8
20260902000017 24 0.0 0.0 0.00 0.00 0.00 87 1017.8
20260901235033 23 0 1.6 1.6 0.00 0.00 0.00 87 1017.7
20260901234028 23 356 0.0 1.6 0.00 0.00 0.00 87 1017.7
20260901233023 23 353 1.6 3.2 0.00 0.00 0.00 87 1017.7
20260901232019 -17 0.0 0.0 0.00 0.00 0.00 1017.6
20260901231034 -17 0.0 0.0 0.00 0.00 0.00 1017.7
20260901230029 24 354 0.0 1.6 0.00 0.00 0.00 88 1017.5
20260901225044 24 359 0.0 1.6 0.00 0.00 0.00 88 1017.7
20260901224019 24 350 1.6 3.2 0.00 0.00 0.00 87 1017.7
20260901223035 24 344 1.6 4.8 0.00 0.00 0.00 87 1017.7
20260901222031 24 352 1.6 1.6 0.00 0.00 0.00 87 1017.7
20260901221026 24 348 1.6 1.6 0.00 0.00 0.00 87 1017.7
20260901220022 25 355 0.0 1.6 0.00 0.00 0.00 86 1017.7
20260901215017 25 340 1.6 3.2 0.00 0.00 0.00 86 1017.6
20260901214032 25 348 0.0 1.6 0.00 0.00 0.00 86 1017.7
20260901213027 25 0.0 0.0 0.00 0.00 0.00 87 1017.7
20260901212043 25 1 0.0 1.6 0.00 0.00 0.00 87 1017.6
20260901211017 25 29 0.0 1.6 0.00 0.00 0.00 86 1017.6
20260901210113 25 32 0.0 1.6 0.00 0.00 0.00 86 1017.6
20260901205028 25 0.0 0.0 0.00 0.00 0.00 86 1017.5
20260901204024 25 0.0 0.0 0.00 0.00 0.00 86 1017.5
20260901203019 25 0.0 0.0 0.00 0.00 0.00 85 1017.5
20260901202035 25 0.0 0.0 0.00 0.00 0.00 85 1017.2
20260901201030 25 49 0.0 1.6 0.00 0.00 0.00 85 1017.1
20260901200025 25 49 0.0 1.6 0.00 0.00 0.00 85 1017.0
20260901195101 25 0.0 0.0 0.00 0.00 0.00 85 1017.0
20260901194036 25 0.0 0.0 0.00 0.00 0.00 84 1016.9
20260901193031 25 0.0 0.0 0.00 0.00 0.00 84 1016.6
20260901192026 25 75 1.6 1.6 0.00 0.00 0.00 84 1016.4
20260901191022 25 78 1.6 3.2 0.00 0.00 0.00 83 1016.2
20260901190017 25 91 0.0 3.2 0.00 0.00 0.00 83 1016.3
20260901185032 25 88 1.6 4.8 0.00 0.00 0.00 82 1016.1
20260901184027 26 121 4.8 9.7 0.00 0.00 0.00 81 1016.0
20260901183022 26 106 4.8 9.7 0.00 0.00 0.00 81 1015.9
20260901182018 26 104 3.2 6.4 0.00 0.00 0.00 81 1016.0
20260901181033 26 120 4.8 11.3 0.00 0.00 0.00 80 1015.8
20260901180029 26 126 8.0 12.9 0.00 0.00 0.00 80 1015.9
20260901175024 26 137 4.8 11.3 0.00 0.00 0.00 80 1015.9
20260901174039 26 102 4.8 11.3 0.00 0.00 0.00 79 1015.8
20260901173034 26 113 8.0 12.9 0.00 0.00 0.00 78 1015.9
20260901172030 26 115 6.4 14.5 0.00 0.00 0.00 77 1015.9
20260901171045 26 130 6.4 11.3 0.00 0.00 0.00 75 1015.9
20260901170021 27 117 11.3 14.5 0.00 0.00 0.00 74 1015.9
20260901165016 27 103 6.4 11.3 0.00 0.00 0.00 72 1015.9
20260901164031 27 111 6.4 14.5 0.00 0.00 0.00 73 1016.1